User: anonymous   Login
Location: Igri�s
(42.2144°N, 0.4320°W)
Time: 18:18:00
(UTC+00:00)
Language:

Tsikada Rocket - Orbit

View from above orbital plane
View from above orbital plane
View from above satellite
View from above satellite

Ground track
Ground track

The orbit data is extracted from the following two-line orbital elements,

1 23466U 95002D   20295.15533365 -.00000050 +00000-0 -68564-4 0  9996
2 23466 082.9231 079.1046 0035336 037.1958 135.7719 13.74431587290881
Epoch (UTC): 21 October 2020 03:43:40
Eccentricity: 0.0035336
inclination: 82.9231°
perigee height: 957 km
apogee height: 1010 km
right ascension of ascending node: 79.1046°
argument of perigee: 37.1958°
revolutions per day: 13.74431587
mean anomaly at epoch: 135.7719°
orbit number at epoch: 29088

The dashed part of the orbit path shows where the satellite is in the earth's shadow,  

DLR